Tracking 25710 objects as of 6-Jul-2022
HD Live streaming from Space Station
objects crossing your sky now

FENGYUN 1C DEB

Track FENGYUN 1C DEB now!
10-day predictions


NORAD ID: 31756
Int'l Code: 1999-025CFF
Perigee: 772.0 km
Apogee: 856.7 km
Inclination: 99.4 °
Period: 101.0 minutes
Semi major axis: 7185 km
RCS: 0.0132 m2 (small)
Launch date: May 10, 1999
Source: People's Republic of China (PRC)
Launch site: Taiyaun Space Center, China (TSC)

Note: This is SATELLITE DEBRIS
aabbcc
Your satellite tracking list
Your tracking list is empty




NASA's NSSDC Master Catalog

Two Line Element Set (TLE):
1 31756U 99025CFF 22176.25697921  .00001775  00000-0  76010-3 0  9993
2 31756  99.3975 192.0270 0058972 215.8225 143.8991 14.25384826425653
Source of the keplerian elements: AFSPC